Погода в Вахрушах

Россия / Кировская область     57°29′15″N   50°17′57″E
темп.,
°C
ветер,
м/с
пор.,
м/с
влажн.,
%
обл.,
%
осадки,
мм/ч
давл.,
гПа
погр.,
м
10 мая, пн
пн1000:00+14юв3107284 0.1 1014246
03:00+13ююв2379100 0.4 101669
06:00+15юз1578100 0.1 1017174
09:00+15с2281100 0.4 101985
12:00+21ююв3452100 0.0 10201152
15:00+16ссз3579100 1.4 1022236
18:00+14с3693100 3.4 1023198
21:00+13с379698 3.9 1025221
11 мая, вт
вт1100:00+11с379886 0.0 1025205
03:00+9с389771 0.0 1027231
06:00+11ссв479035 0.0 1028284
09:00+16св34735 0.0 1028524
12:00+20ссв33605 0.0 1028913
15:00+21ссв32575 0.0 10281128
18:00+19ссв25685 0.0 1028200
21:00+14св35815 0.0 102978
12 мая, ср
ср1200:00+12св237961 0.0 103044
03:00+11св338219 0.0 103053
06:00+14св357493 0.0 1030184
09:00+20всв336132 0.0 1030593
12:00+23в224861 0.0 10291516
15:00+22ссв2152100 0.0 1028353
18:00+21всв226187 0.0 102822
21:00+18в226997 0.0 102842
13 мая, чт
чт1300:00+17вюв117191 0.0 102913
03:00+16св117084 0.0 102911
06:00+18в116859 0.0 102979
09:00+23вюв234811 0.0 1028641
12:00+25вюв2435100 0.0 10272574
15:00+24ююз3445100 0.0 1026767
18:00+22ю22532 0.0 102654
21:00+17ююв226240 0.0 102611
14 мая, пт
пт1400:00+15ююв226749 0.0 102619
03:00+14ююв2269100 0.0 102614
06:00+17ююв246362 0.0 1026133
09:00+23ю354485 0.0 1025678
12:00+25ююз463775 0.0 10241553
15:00+26ююз563631 0.0 10231738
18:00+22ю375312 0.0 1022274
21:00+17ю36715 0.0 102197